ATLAS 5 CENTAUR DEB, 49343

Orbit data source: Space-Track

ATLAS 5 CENTAUR DEB, 49343 is space debris in HEO originally from a launch on Wed, 17 Oct 2018 UTC launched from the Air Force Eastern Test Range (AFETR). Debris objects in space refer to the collection of defunct objects orbiting the Earth. Examples of debris include non-operational satellites, rocket bodies, and fragments generated from explosions, collisions, or faulty payload assembly.

Loading next visibility...
Identifier
49343, 2018-079EU
Orbit
HEO
Country
Flag of USUS
Related business
Flag of USUnited Launch Alliance/Lockheed Martin (US)
Manufacturer
ULA Decatur
Mission
Spacecraft
Bus & Motor
Unknown
Mass
Unknown
Launch date (UTC)
2018-10-17 (7 years ago)
Launch vehicle
Unknown
Launch site
Air Force Eastern Test Range (AFETR)
Object type
Payload
Rocket body
Debris
Shape & HBR
Unknown shape, 1.1 m
Radar Cross Section
Large (>1 m²)

Expand to show TLE details & history
Last TLE update: 3 days ago

TLE from 3 days ago
0 ATLAS 5 CENTAUR DEB
1 49343U 18079EU  25348.05365319 -.00000103  00000-0  00000-0 0  9997
2 49343  12.7089  74.8046 4591979 235.3445  72.4301  1.74646492 27392
Epoch: 2025-12-14T01:17Z
TLE epoch observation values (Epoch: 2025-12-14T01:17:15.635Z)
Latitude
-0.00001°
Longitude
-27.55731°
Altitude
24,748.488 km
Speed
3.454 km/s
True Right ascension
04h 58m 55s
True Declination
0° 00' 00"
Sunlit
Object was in daylight at epoch
Visualization orbit readout
Latitude
Unknown
Longitude
Unknown
Altitude
Unknown
Speed
Unknown
Apparent Right ascension
Unknown
Apparent Declination
Unknown
Sunlit
N/A
Visualization observer readout
Local Sidereal Time
12:39:33
Azimuth
Unknown
Elevation
Unknown
Doppler factor
Unknown
Orbital elements
Apogee altitude
36,126.817 km
Perigee altitude
9,374.879 km
Semi-major axis
29,128.985 km
Eccentricity
0.4592
Inclination
12.7089°
RAAN
74.8046°
Arg. of periapsis
235.3445°
True anomaly
124.60252°
Mean anomaly
72.4301°
Eccentric anomaly
98.4543°
Mean motion
0.43657 °/min
Orbital period
824.61 mins
BSTAR
0
Loading maneuver chart data...
Computing Atmospheric mass density...

Documentation

Showing up to 5 results
|